Time,TemperatureF,DewpointF,PressureIn,WindDirection,WindDirectionDegrees,WindSpeedMPH,WindSpeedGustMPH,Humidity,HourlyPrecipIn,Conditions,Clouds,dailyrainin,SoftwareType,DateUTC
2013-03-23 00:06:00,60.3,36.0,29.88,North,-999,-999.0,-999.0,40,-99.99,,,-99.99,,2013-03-23 07:06:00,
2013-03-23 00:12:00,60.6,36.0,29.87,North,-999,-999.0,-999.0,39,-99.99,,,-99.99,,2013-03-23 07:12:00,
2013-03-23 00:18:00,60.7,36.0,29.86,North,-999,-999.0,-999.0,39,-99.99,,,-99.99,,2013-03-23 07:18:00,
2013-03-23 00:24:00,60.3,36.0,29.86,North,-999,-999.0,-999.0,40,-99.99,,,-99.99,,2013-03-23 07:24:00,
2013-03-23 00:30:00,59.3,35.8,29.87,North,-999,-999.0,-999.0,41,-99.99,,,-99.99,,2013-03-23 07:30:00,
2013-03-23 00:36:00,58.5,35.6,29.87,North,-999,-999.0,-999.0,42,-99.99,,,-99.99,,2013-03-23 07:36:00,
2013-03-23 00:42:00,58.9,35.8,29.89,North,-999,-999.0,-999.0,42,-99.99,,,-99.99,,2013-03-23 07:42:00,
2013-03-23 00:48:00,58.7,35.7,29.87,North,-999,-999.0,-999.0,42,-99.99,,,-99.99,,2013-03-23 07:48:00,
2013-03-23 00:54:00,58.4,35.7,29.88,North,-999,-999.0,-999.0,42,-99.99,,,-99.99,,2013-03-23 07:54:00,
2013-03-23 01:00:00,58.7,35.8,29.88,North,-999,-999.0,-999.0,42,-99.99,,,-99.99,,2013-03-23 08:00:00,
2013-03-23 01:06:00,59.1,36.0,29.88,North,-999,-999.0,-999.0,42,-99.99,,,-99.99,,2013-03-23 08:06:00,
2013-03-23 01:12:00,59.2,36.0,29.89,North,-999,-999.0,-999.0,41,-99.99,,,-99.99,,2013-03-23 08:12:00,
2013-03-23 01:18:00,59.3,35.9,29.88,North,-999,-999.0,-999.0,41,-99.99,,,-99.99,,2013-03-23 08:18:00,
2013-03-23 01:24:00,59.0,35.8,29.88,North,-999,-999.0,-999.0,41,-99.99,,,-99.99,,2013-03-23 08:24:00,
2013-03-23 01:30:00,58.5,35.8,29.89,North,-999,-999.0,-999.0,42,-99.99,,,-99.99,,2013-03-23 08:30:00,
2013-03-23 01:36:00,58.8,35.9,29.88,North,-999,-999.0,-999.0,42,-99.99,,,-99.99,,2013-03-23 08:36:00,
2013-03-23 01:42:00,58.9,35.9,29.88,North,-999,-999.0,-999.0,42,-99.99,,,-99.99,,2013-03-23 08:42:00,
2013-03-23 01:48:00,58.7,35.8,29.89,North,-999,-999.0,-999.0,42,-99.99,,,-99.99,,2013-03-23 08:48:00,
2013-03-23 01:54:00,59.2,35.9,29.89,North,-999,-999.0,-999.0,41,-99.99,,,-99.99,,2013-03-23 08:54:00,
2013-03-23 02:00:00,59.3,35.9,29.89,North,-999,-999.0,-999.0,41,-99.99,,,-99.99,,2013-03-23 09:00:00,
2013-03-23 02:06:00,58.8,35.8,29.89,North,-999,-999.0,-999.0,42,-99.99,,,-99.99,,2013-03-23 09:06:00,
2013-03-23 02:12:00,58.5,35.7,29.88,North,-999,-999.0,-999.0,42,-99.99,,,-99.99,,2013-03-23 09:12:00,
2013-03-23 02:18:00,58.7,35.6,29.89,North,-999,-999.0,-999.0,41,-99.99,,,-99.99,,2013-03-23 09:18:00,
2013-03-23 02:24:00,58.2,35.5,29.86,North,-999,-999.0,-999.0,42,-99.99,,,-99.99,,2013-03-23 09:24:00,
2013-03-23 02:30:00,58.2,35.5,29.86,North,-999,-999.0,-999.0,42,-99.99,,,-99.99,,2013-03-23 09:30:00,
2013-03-23 02:36:00,58.1,35.3,29.87,North,-999,-999.0,-999.0,42,-99.99,,,-99.99,,2013-03-23 09:36:00,
2013-03-23 02:42:00,57.7,35.1,29.88,North,-999,-999.0,-999.0,42,-99.99,,,-99.99,,2013-03-23 09:42:00,
2013-03-23 02:48:00,57.3,34.9,29.88,North,-999,-999.0,-999.0,42,-99.99,,,-99.99,,2013-03-23 09:48:00,
2013-03-23 02:54:00,57.0,34.7,29.88,North,-999,-999.0,-999.0,42,-99.99,,,-99.99,,2013-03-23 09:54:00,
2013-03-23 03:00:00,56.8,34.5,29.88,North,-999,-999.0,-999.0,43,-99.99,,,-99.99,,2013-03-23 10:00:00,
2013-03-23 03:06:00,56.9,34.4,29.88,North,-999,-999.0,-999.0,42,-99.99,,,-99.99,,2013-03-23 10:06:00,
2013-03-23 03:12:00,57.0,34.2,29.87,North,-999,-999.0,-999.0,42,-99.99,,,-99.99,,2013-03-23 10:12:00,
2013-03-23 03:18:00,56.9,34.0,29.88,North,-999,-999.0,-999.0,42,-99.99,,,-99.99,,2013-03-23 10:18:00,
2013-03-23 03:24:00,56.6,33.7,29.88,North,-999,-999.0,-999.0,42,-99.99,,,-99.99,,2013-03-23 10:24:00,
2013-03-23 03:30:00,56.5,33.6,29.87,North,-999,-999.0,-999.0,41,-99.99,,,-99.99,,2013-03-23 10:30:00,
2013-03-23 03:36:00,56.7,33.6,29.88,North,-999,-999.0,-999.0,41,-99.99,,,-99.99,,2013-03-23 10:36:00,
2013-03-23 03:42:00,56.5,33.5,29.87,North,-999,-999.0,-999.0,41,-99.99,,,-99.99,,2013-03-23 10:42:00,
2013-03-23 03:48:00,56.7,33.6,29.87,North,-999,-999.0,-999.0,41,-99.99,,,-99.99,,2013-03-23 10:48:00,
2013-03-23 03:54:00,56.9,33.7,29.87,North,-999,-999.0,-999.0,41,-99.99,,,-99.99,,2013-03-23 10:54:00,
2013-03-23 04:00:00,56.7,33.7,29.88,North,-999,-999.0,-999.0,41,-99.99,,,-99.99,,2013-03-23 11:00:00,
2013-03-23 04:06:00,56.8,33.8,29.88,North,-999,-999.0,-999.0,41,-99.99,,,-99.99,,2013-03-23 11:06:00,
2013-03-23 04:12:00,56.9,33.9,29.89,North,-999,-999.0,-999.0,41,-99.99,,,-99.99,,2013-03-23 11:12:00,
2013-03-23 04:18:00,56.5,33.9,29.88,North,-999,-999.0,-999.0,42,-99.99,,,-99.99,,2013-03-23 11:18:00,
2013-03-23 04:24:00,56.7,34.0,29.89,North,-999,-999.0,-999.0,42,-99.99,,,-99.99,,2013-03-23 11:24:00,
2013-03-23 04:30:00,55.6,34.0,29.89,North,-999,-999.0,-999.0,44,-99.99,,,-99.99,,2013-03-23 11:30:00,
2013-03-23 04:36:00,55.4,34.0,29.89,North,-999,-999.0,-999.0,44,-99.99,,,-99.99,,2013-03-23 11:36:00,
2013-03-23 04:42:00,55.2,34.0,29.90,North,-999,-999.0,-999.0,44,-99.99,,,-99.99,,2013-03-23 11:42:00,
2013-03-23 04:48:00,54.7,34.0,29.89,North,-999,-999.0,-999.0,45,-99.99,,,-99.99,,2013-03-23 11:48:00,
2013-03-23 04:54:00,54.9,34.0,29.90,North,-999,-999.0,-999.0,45,-99.99,,,-99.99,,2013-03-23 11:54:00,
2013-03-23 05:00:00,54.9,34.2,29.90,North,-999,-999.0,-999.0,45,-99.99,,,-99.99,,2013-03-23 12:00:00,
2013-03-23 05:12:00,54.7,34.4,29.89,North,-999,-999.0,-999.0,46,-99.99,,,-99.99,,2013-03-23 12:12:00,
2013-03-23 05:18:00,54.2,34.3,29.90,North,-999,-999.0,-999.0,46,-99.99,,,-99.99,,2013-03-23 12:18:00,
2013-03-23 05:24:00,54.8,34.6,29.91,North,-999,-999.0,-999.0,46,-99.99,,,-99.99,,2013-03-23 12:24:00,
2013-03-23 05:30:00,54.5,34.6,29.91,North,-999,-999.0,-999.0,46,-99.99,,,-99.99,,2013-03-23 12:30:00,
2013-03-23 05:36:00,54.0,34.5,29.92,North,-999,-999.0,-999.0,47,-99.99,,,-99.99,,2013-03-23 12:36:00,
2013-03-23 05:42:00,54.0,34.5,29.91,North,-999,-999.0,-999.0,47,-99.99,,,-99.99,,2013-03-23 12:42:00,
2013-03-23 05:48:00,52.2,34.3,29.90,North,-999,-999.0,-999.0,50,-99.99,,,-99.99,,2013-03-23 12:48:00,
2013-03-23 05:54:00,51.3,34.0,29.91,North,-999,-999.0,-999.0,51,-99.99,,,-99.99,,2013-03-23 12:54:00,
2013-03-23 06:00:00,50.8,33.9,29.91,North,-999,-999.0,-999.0,52,-99.99,,,-99.99,,2013-03-23 13:00:00,
2013-03-23 06:06:00,50.4,33.7,29.91,North,-999,-999.0,-999.0,52,-99.99,,,-99.99,,2013-03-23 13:06:00,
2013-03-23 06:12:00,50.5,33.9,29.91,North,-999,-999.0,-999.0,52,-99.99,,,-99.99,,2013-03-23 13:12:00,
2013-03-23 06:18:00,50.5,33.8,29.93,North,-999,-999.0,-999.0,52,-99.99,,,-99.99,,2013-03-23 13:18:00,
2013-03-23 06:24:00,50.2,34.1,29.92,North,-999,-999.0,-999.0,53,-99.99,,,-99.99,,2013-03-23 13:24:00,
2013-03-23 06:30:00,50.6,34.2,29.93,North,-999,-999.0,-999.0,53,-99.99,,,-99.99,,2013-03-23 13:30:00,
2013-03-23 06:36:00,49.6,33.8,29.93,North,-999,-999.0,-999.0,54,-99.99,,,-99.99,,2013-03-23 13:36:00,
2013-03-23 06:42:00,49.6,34.0,29.93,North,-999,-999.0,-999.0,54,-99.99,,,-99.99,,2013-03-23 13:42:00,
2013-03-23 06:48:00,50.5,33.6,29.93,North,-999,-999.0,-999.0,52,-99.99,,,-99.99,,2013-03-23 13:48:00,
2013-03-23 06:54:00,51.2,33.4,29.94,North,-999,-999.0,-999.0,50,-99.99,,,-99.99,,2013-03-23 13:54:00,
2013-03-23 07:00:00,51.6,33.2,29.94,North,-999,-999.0,-999.0,49,-99.99,,,-99.99,,2013-03-23 14:00:00,
2013-03-23 07:06:00,52.0,33.3,29.94,North,-999,-999.0,-999.0,48,-99.99,,,-99.99,,2013-03-23 14:06:00,
2013-03-23 07:12:00,52.6,33.5,29.93,North,-999,-999.0,-999.0,48,-99.99,,,-99.99,,2013-03-23 14:12:00,
2013-03-23 07:18:00,53.2,33.5,29.93,North,-999,-999.0,-999.0,46,-99.99,,,-99.99,,2013-03-23 14:18:00,
2013-03-23 07:24:00,54.3,33.8,29.94,North,-999,-999.0,-999.0,45,-99.99,,,-99.99,,2013-03-23 14:24:00,
2013-03-23 07:30:00,55.3,34.1,29.94,North,-999,-999.0,-999.0,44,-99.99,,,-99.99,,2013-03-23 14:30:00,
2013-03-23 07:36:00,56.5,34.6,29.96,North,-999,-999.0,-999.0,43,-99.99,,,-99.99,,2013-03-23 14:36:00,
2013-03-23 07:42:00,58.5,35.1,29.96,North,-999,-999.0,-999.0,41,-99.99,,,-99.99,,2013-03-23 14:42:00,
2013-03-23 07:48:00,60.3,35.8,29.95,North,-999,-999.0,-999.0,39,-99.99,,,-99.99,,2013-03-23 14:48:00,
2013-03-23 07:54:00,61.1,35.3,29.96,North,-999,-999.0,-999.0,37,-99.99,,,-99.99,,2013-03-23 14:54:00,
2013-03-23 08:00:00,62.7,35.8,29.96,North,-999,-999.0,-999.0,36,-99.99,,,-99.99,,2013-03-23 15:00:00,
2013-03-23 08:06:00,63.3,35.3,29.96,North,-999,-999.0,-999.0,35,-99.99,,,-99.99,,2013-03-23 15:06:00,
2013-03-23 08:12:00,64.1,35.4,29.97,North,-999,-999.0,-999.0,34,-99.99,,,-99.99,,2013-03-23 15:12:00,
2013-03-23 08:18:00,64.2,35.2,29.97,North,-999,-999.0,-999.0,33,-99.99,,,-99.99,,2013-03-23 15:18:00,
2013-03-23 08:24:00,65.6,35.4,29.97,North,-999,-999.0,-999.0,32,-99.99,,,-99.99,,2013-03-23 15:24:00,
2013-03-23 08:30:00,66.5,35.7,29.97,North,-999,-999.0,-999.0,31,-99.99,,,-99.99,,2013-03-23 15:30:00,
2013-03-23 08:36:00,66.5,35.3,29.96,North,-999,-999.0,-999.0,31,-99.99,,,-99.99,,2013-03-23 15:36:00,
2013-03-23 08:42:00,66.8,35.1,29.97,North,-999,-999.0,-999.0,30,-99.99,,,-99.99,,2013-03-23 15:42:00,
2013-03-23 08:48:00,67.2,34.7,29.97,North,-999,-999.0,-999.0,30,-99.99,,,-99.99,,2013-03-23 15:48:00,
2013-03-23 08:54:00,67.7,34.0,29.97,North,-999,-999.0,-999.0,28,-99.99,,,-99.99,,2013-03-23 15:54:00,
2013-03-23 09:00:00,68.2,33.9,29.98,North,-999,-999.0,-999.0,28,-99.99,,,-99.99,,2013-03-23 16:00:00,
2013-03-23 09:06:00,68.3,33.8,29.97,North,-999,-999.0,-999.0,27,-99.99,,,-99.99,,2013-03-23 16:06:00,
2013-03-23 09:12:00,68.7,33.7,29.97,North,-999,-999.0,-999.0,27,-99.99,,,-99.99,,2013-03-23 16:12:00,
2013-03-23 09:18:00,69.2,33.5,29.98,North,-999,-999.0,-999.0,26,-99.99,,,-99.99,,2013-03-23 16:18:00,
2013-03-23 09:24:00,68.9,33.3,29.99,North,-999,-999.0,-999.0,26,-99.99,,,-99.99,,2013-03-23 16:24:00,
2013-03-23 09:30:00,69.4,33.4,29.98,North,-999,-999.0,-999.0,26,-99.99,,,-99.99,,2013-03-23 16:30:00,
2013-03-23 09:36:00,69.8,33.5,29.98,North,-999,-999.0,-999.0,26,-99.99,,,-99.99,,2013-03-23 16:36:00,
2013-03-23 09:42:00,70.2,33.4,29.98,North,-999,-999.0,-999.0,25,-99.99,,,-99.99,,2013-03-23 16:42:00,
2013-03-23 09:48:00,70.3,33.2,29.98,North,-999,-999.0,-999.0,25,-99.99,,,-99.99,,2013-03-23 16:48:00,
2013-03-23 09:54:00,70.1,32.8,29.98,North,-999,-999.0,-999.0,25,-99.99,,,-99.99,,2013-03-23 16:54:00,
2013-03-23 10:00:00,71.0,32.8,29.97,North,-999,-999.0,-999.0,24,-99.99,,,-99.99,,2013-03-23 17:00:00,
2013-03-23 10:06:00,71.3,32.9,29.97,North,-999,-999.0,-999.0,24,-99.99,,,-99.99,,2013-03-23 17:06:00,
2013-03-23 10:12:00,72.2,32.5,29.97,North,-999,-999.0,-999.0,23,-99.99,,,-99.99,,2013-03-23 17:12:00,
2013-03-23 10:18:00,72.3,33.0,29.98,North,-999,-999.0,-999.0,23,-99.99,,,-99.99,,2013-03-23 17:18:00,
2013-03-23 10:24:00,72.7,32.0,29.98,North,-999,-999.0,-999.0,22,-99.99,,,-99.99,,2013-03-23 17:24:00,
2013-03-23 10:30:00,72.8,31.6,29.99,North,-999,-999.0,-999.0,21,-99.99,,,-99.99,,2013-03-23 17:30:00,
2013-03-23 10:36:00,72.7,31.0,30.00,North,-999,-999.0,-999.0,21,-99.99,,,-99.99,,2013-03-23 17:36:00,
2013-03-23 10:42:00,72.8,30.8,29.99,North,-999,-999.0,-999.0,21,-99.99,,,-99.99,,2013-03-23 17:42:00,
2013-03-23 10:48:00,73.4,29.4,29.99,North,-999,-999.0,-999.0,19,-99.99,,,-99.99,,2013-03-23 17:48:00,
2013-03-23 10:54:00,73.6,28.1,29.99,North,-999,-999.0,-999.0,18,-99.99,,,-99.99,,2013-03-23 17:54:00,
2013-03-23 11:00:00,74.3,29.4,29.99,North,-999,-999.0,-999.0,19,-99.99,,,-99.99,,2013-03-23 18:00:00,
2013-03-23 11:06:00,75.1,29.1,29.99,North,-999,-999.0,-999.0,18,-99.99,,,-99.99,,2013-03-23 18:06:00,
2013-03-23 11:12:00,75.2,28.8,29.98,North,-999,-999.0,-999.0,18,-99.99,,,-99.99,,2013-03-23 18:12:00,
2013-03-23 11:18:00,74.9,27.4,29.99,North,-999,-999.0,-999.0,17,-99.99,,,-99.99,,2013-03-23 18:18:00,
2013-03-23 11:24:00,74.8,27.1,29.99,North,-999,-999.0,-999.0,17,-99.99,,,-99.99,,2013-03-23 18:24:00,
2013-03-23 11:30:00,75.0,26.6,29.99,North,-999,-999.0,-999.0,16,-99.99,,,-99.99,,2013-03-23 18:30:00,
2013-03-23 11:36:00,75.2,27.9,30.01,North,-999,-999.0,-999.0,17,-99.99,,,-99.99,,2013-03-23 18:36:00,
2013-03-23 11:42:00,75.7,28.9,30.01,North,-999,-999.0,-999.0,17,-99.99,,,-99.99,,2013-03-23 18:42:00,
2013-03-23 11:48:00,76.6,30.0,29.98,North,-999,-999.0,-999.0,18,-99.99,,,-99.99,,2013-03-23 18:48:00,
2013-03-23 11:54:00,76.9,29.1,29.98,North,-999,-999.0,-999.0,17,-99.99,,,-99.99,,2013-03-23 18:54:00,
2013-03-23 12:00:00,76.5,28.7,29.99,North,-999,-999.0,-999.0,17,-99.99,,,-99.99,,2013-03-23 19:00:00,
2013-03-23 12:06:00,76.9,29.7,29.97,North,-999,-999.0,-999.0,17,-99.99,,,-99.99,,2013-03-23 19:06:00,
2013-03-23 12:12:00,76.5,28.8,29.99,North,-999,-999.0,-999.0,17,-99.99,,,-99.99,,2013-03-23 19:12:00,
2013-03-23 12:18:00,76.8,28.5,29.99,North,-999,-999.0,-999.0,16,-99.99,,,-99.99,,2013-03-23 19:18:00,
2013-03-23 12:24:00,76.6,27.0,30.00,North,-999,-999.0,-999.0,16,-99.99,,,-99.99,,2013-03-23 19:24:00,
2013-03-23 12:30:00,77.3,27.7,30.01,North,-999,-999.0,-999.0,16,-99.99,,,-99.99,,2013-03-23 19:30:00,
2013-03-23 12:36:00,77.1,27.5,30.00,North,-999,-999.0,-999.0,16,-99.99,,,-99.99,,2013-03-23 19:36:00,
2013-03-23 12:42:00,77.6,28.3,30.00,North,-999,-999.0,-999.0,16,-99.99,,,-99.99,,2013-03-23 19:42:00,
2013-03-23 12:48:00,77.1,28.8,29.99,North,-999,-999.0,-999.0,16,-99.99,,,-99.99,,2013-03-23 19:48:00,
2013-03-23 12:54:00,77.2,30.0,29.98,North,-999,-999.0,-999.0,17,-99.99,,,-99.99,,2013-03-23 19:54:00,
2013-03-23 13:00:00,77.2,30.3,29.98,North,-999,-999.0,-999.0,17,-99.99,,,-99.99,,2013-03-23 20:00:00,
2013-03-23 13:06:00,76.5,29.6,29.99,North,-999,-999.0,-999.0,17,-99.99,,,-99.99,,2013-03-23 20:06:00,
2013-03-23 13:12:00,76.9,30.0,29.99,North,-999,-999.0,-999.0,17,-99.99,,,-99.99,,2013-03-23 20:12:00,
2013-03-23 13:18:00,76.7,29.3,29.98,North,-999,-999.0,-999.0,17,-99.99,,,-99.99,,2013-03-23 20:18:00,
2013-03-23 13:24:00,76.9,29.4,29.97,North,-999,-999.0,-999.0,17,-99.99,,,-99.99,,2013-03-23 20:24:00,
2013-03-23 13:30:00,77.9,29.4,29.97,North,-999,-999.0,-999.0,16,-99.99,,,-99.99,,2013-03-23 20:30:00,
2013-03-23 13:42:00,77.3,26.9,29.99,North,-999,-999.0,-999.0,15,-99.99,,,-99.99,,2013-03-23 20:42:00,
2013-03-23 13:48:00,77.1,24.2,29.98,North,-999,-999.0,-999.0,14,-99.99,,,-99.99,,2013-03-23 20:48:00,
2013-03-23 13:54:00,77.4,23.1,29.98,North,-999,-999.0,-999.0,13,-99.99,,,-99.99,,2013-03-23 20:54:00,
2013-03-23 14:00:00,76.8,21.9,29.98,North,-999,-999.0,-999.0,12,-99.99,,,-99.99,,2013-03-23 21:00:00,
2013-03-23 14:06:00,77.3,22.0,29.96,North,-999,-999.0,-999.0,12,-99.99,,,-99.99,,2013-03-23 21:06:00,
2013-03-23 14:12:00,77.1,20.1,29.98,North,-999,-999.0,-999.0,11,-99.99,,,-99.99,,2013-03-23 21:12:00,
2013-03-23 14:18:00,77.2,20.4,29.98,North,-999,-999.0,-999.0,11,-99.99,,,-99.99,,2013-03-23 21:18:00,
2013-03-23 14:24:00,76.5,18.6,29.99,North,-999,-999.0,-999.0,11,-99.99,,,-99.99,,2013-03-23 21:24:00,
2013-03-23 14:30:00,76.5,18.7,29.98,North,-999,-999.0,-999.0,11,-99.99,,,-99.99,,2013-03-23 21:30:00,
2013-03-23 14:36:00,76.8,18.6,29.97,North,-999,-999.0,-999.0,11,-99.99,,,-99.99,,2013-03-23 21:36:00,
2013-03-23 14:42:00,77.2,19.3,29.97,North,-999,-999.0,-999.0,11,-99.99,,,-99.99,,2013-03-23 21:42:00,
2013-03-23 14:48:00,76.9,18.9,29.97,North,-999,-999.0,-999.0,11,-99.99,,,-99.99,,2013-03-23 21:48:00,
2013-03-23 14:54:00,76.9,18.3,29.97,North,-999,-999.0,-999.0,10,-99.99,,,-99.99,,2013-03-23 21:54:00,
2013-03-23 15:00:00,76.7,18.8,29.97,North,-999,-999.0,-999.0,11,-99.99,,,-99.99,,2013-03-23 22:00:00,
2013-03-23 15:06:00,76.0,19.1,29.97,North,-999,-999.0,-999.0,11,-99.99,,,-99.99,,2013-03-23 22:06:00,
2013-03-23 15:12:00,75.6,16.6,29.98,North,-999,-999.0,-999.0,10,-99.99,,,-99.99,,2013-03-23 22:12:00,
2013-03-23 15:18:00,75.4,15.3,29.95,North,-999,-999.0,-999.0,10,-99.99,,,-99.99,,2013-03-23 22:18:00,
2013-03-23 15:24:00,75.8,15.4,29.96,North,-999,-999.0,-999.0,10,-99.99,,,-99.99,,2013-03-23 22:24:00,
2013-03-23 15:30:00,76.3,16.4,29.95,North,-999,-999.0,-999.0,10,-99.99,,,-99.99,,2013-03-23 22:30:00,
2013-03-23 15:36:00,76.1,16.8,29.95,North,-999,-999.0,-999.0,10,-99.99,,,-99.99,,2013-03-23 22:36:00,
2013-03-23 15:42:00,75.8,18.2,29.95,North,-999,-999.0,-999.0,11,-99.99,,,-99.99,,2013-03-23 22:42:00,
2013-03-23 15:48:00,75.7,17.5,29.95,North,-999,-999.0,-999.0,11,-99.99,,,-99.99,,2013-03-23 22:48:00,
2013-03-23 15:54:00,75.9,17.4,29.96,North,-999,-999.0,-999.0,10,-99.99,,,-99.99,,2013-03-23 22:54:00,
2013-03-23 16:00:00,75.7,17.3,29.94,North,-999,-999.0,-999.0,10,-99.99,,,-99.99,,2013-03-23 23:00:00,
2013-03-23 16:06:00,75.2,17.2,29.95,North,-999,-999.0,-999.0,11,-99.99,,,-99.99,,2013-03-23 23:06:00,
2013-03-23 16:12:00,75.6,17.2,29.95,North,-999,-999.0,-999.0,10,-99.99,,,-99.99,,2013-03-23 23:12:00,
2013-03-23 16:18:00,75.0,18.1,29.95,North,-999,-999.0,-999.0,11,-99.99,,,-99.99,,2013-03-23 23:18:00,
2013-03-23 16:24:00,74.8,18.7,29.95,North,-999,-999.0,-999.0,11,-99.99,,,-99.99,,2013-03-23 23:24:00,
2013-03-23 16:30:00,74.8,18.4,29.94,North,-999,-999.0,-999.0,11,-99.99,,,-99.99,,2013-03-23 23:30:00,
2013-03-23 16:36:00,74.4,17.9,29.95,North,-999,-999.0,-999.0,11,-99.99,,,-99.99,,2013-03-23 23:36:00,
2013-03-23 16:42:00,73.9,18.4,29.95,North,-999,-999.0,-999.0,12,-99.99,,,-99.99,,2013-03-23 23:42:00,
2013-03-23 16:48:00,73.9,18.5,29.94,North,-999,-999.0,-999.0,12,-99.99,,,-99.99,,2013-03-23 23:48:00,
2013-03-23 16:54:00,73.9,18.0,29.92,North,-999,-999.0,-999.0,11,-99.99,,,-99.99,,2013-03-23 23:54:00,
2013-03-23 17:00:00,73.9,17.3,29.94,North,-999,-999.0,-999.0,11,-99.99,,,-99.99,,2013-03-24 00:00:00,
2013-03-23 17:06:00,73.5,16.8,29.95,North,-999,-999.0,-999.0,11,-99.99,,,-99.99,,2013-03-24 00:06:00,
2013-03-23 17:12:00,73.3,17.7,29.95,North,-999,-999.0,-999.0,12,-99.99,,,-99.99,,2013-03-24 00:12:00,
2013-03-23 17:18:00,73.2,17.6,29.95,North,-999,-999.0,-999.0,12,-99.99,,,-99.99,,2013-03-24 00:18:00,
2013-03-23 17:24:00,72.8,17.2,29.95,North,-999,-999.0,-999.0,12,-99.99,,,-99.99,,2013-03-24 00:24:00,
2013-03-23 17:30:00,72.6,16.7,29.95,North,-999,-999.0,-999.0,11,-99.99,,,-99.99,,2013-03-24 00:30:00,
2013-03-23 17:36:00,72.6,16.6,29.95,North,-999,-999.0,-999.0,11,-99.99,,,-99.99,,2013-03-24 00:36:00,
2013-03-23 17:42:00,71.9,16.3,29.95,North,-999,-999.0,-999.0,11,-99.99,,,-99.99,,2013-03-24 00:42:00,
2013-03-23 17:48:00,71.8,16.0,29.96,North,-999,-999.0,-999.0,11,-99.99,,,-99.99,,2013-03-24 00:48:00,
2013-03-23 17:54:00,71.3,15.6,29.97,North,-999,-999.0,-999.0,11,-99.99,,,-99.99,,2013-03-24 00:54:00,
2013-03-23 18:00:00,71.0,15.6,29.95,North,-999,-999.0,-999.0,11,-99.99,,,-99.99,,2013-03-24 01:00:00,
2013-03-23 18:06:00,70.6,15.4,29.94,North,-999,-999.0,-999.0,11,-99.99,,,-99.99,,2013-03-24 01:06:00,
2013-03-23 18:12:00,70.0,14.9,29.95,North,-999,-999.0,-999.0,11,-99.99,,,-99.99,,2013-03-24 01:12:00,
2013-03-23 18:18:00,69.5,14.7,29.96,North,-999,-999.0,-999.0,12,-99.99,,,-99.99,,2013-03-24 01:18:00,
2013-03-23 18:24:00,68.9,14.7,29.96,North,-999,-999.0,-999.0,12,-99.99,,,-99.99,,2013-03-24 01:24:00,
2013-03-23 18:30:00,68.2,14.7,29.97,North,-999,-999.0,-999.0,12,-99.99,,,-99.99,,2013-03-24 01:30:00,
2013-03-23 18:36:00,67.7,14.5,29.96,North,-999,-999.0,-999.0,12,-99.99,,,-99.99,,2013-03-24 01:36:00,
2013-03-23 18:42:00,67.6,14.4,29.96,North,-999,-999.0,-999.0,12,-99.99,,,-99.99,,2013-03-24 01:42:00,
2013-03-23 18:48:00,67.0,14.5,29.97,North,-999,-999.0,-999.0,12,-99.99,,,-99.99,,2013-03-24 01:48:00,
2013-03-23 18:54:00,66.9,14.4,29.97,North,-999,-999.0,-999.0,12,-99.99,,,-99.99,,2013-03-24 01:54:00,
2013-03-23 19:00:00,66.8,14.2,29.97,North,-999,-999.0,-999.0,12,-99.99,,,-99.99,,2013-03-24 02:00:00,
2013-03-23 19:06:00,66.6,13.9,29.97,North,-999,-999.0,-999.0,12,-99.99,,,-99.99,,2013-03-24 02:06:00,
2013-03-23 19:12:00,66.2,13.4,29.95,North,-999,-999.0,-999.0,12,-99.99,,,-99.99,,2013-03-24 02:12:00,
2013-03-23 19:18:00,66.4,11.6,29.96,North,-999,-999.0,-999.0,11,-99.99,,,-99.99,,2013-03-24 02:18:00,
2013-03-23 19:24:00,66.0,10.9,29.97,North,-999,-999.0,-999.0,11,-99.99,,,-99.99,,2013-03-24 02:24:00,
2013-03-23 19:30:00,66.2,10.0,29.97,North,-999,-999.0,-999.0,10,-99.99,,,-99.99,,2013-03-24 02:30:00,
2013-03-23 19:36:00,66.3,9.8,29.98,North,-999,-999.0,-999.0,10,-99.99,,,-99.99,,2013-03-24 02:36:00,
2013-03-23 19:42:00,65.6,9.9,29.97,North,-999,-999.0,-999.0,11,-99.99,,,-99.99,,2013-03-24 02:42:00,
2013-03-23 19:48:00,65.4,9.5,29.97,North,-999,-999.0,-999.0,11,-99.99,,,-99.99,,2013-03-24 02:48:00,
2013-03-23 19:54:00,65.4,8.8,29.97,North,-999,-999.0,-999.0,10,-99.99,,,-99.99,,2013-03-24 02:54:00,
2013-03-23 20:00:00,65.2,8.3,29.98,North,-999,-999.0,-999.0,10,-99.99,,,-99.99,,2013-03-24 03:00:00,
2013-03-23 20:06:00,65.2,8.1,29.99,North,-999,-999.0,-999.0,10,-99.99,,,-99.99,,2013-03-24 03:06:00,
2013-03-23 20:12:00,64.7,8.2,29.99,North,-999,-999.0,-999.0,10,-99.99,,,-99.99,,2013-03-24 03:12:00,
2013-03-23 20:18:00,63.7,8.7,29.99,North,-999,-999.0,-999.0,11,-99.99,,,-99.99,,2013-03-24 03:18:00,
2013-03-23 20:24:00,61.7,9.3,29.99,North,-999,-999.0,-999.0,12,-99.99,,,-99.99,,2013-03-24 03:24:00,
2013-03-23 20:30:00,60.6,8.8,30.00,North,-999,-999.0,-999.0,12,-99.99,,,-99.99,,2013-03-24 03:30:00,
2013-03-23 20:36:00,61.5,8.8,30.01,North,-999,-999.0,-999.0,12,-99.99,,,-99.99,,2013-03-24 03:36:00,
2013-03-23 20:42:00,62.0,8.8,30.01,North,-999,-999.0,-999.0,11,-99.99,,,-99.99,,2013-03-24 03:42:00,
2013-03-23 20:48:00,60.7,10.1,29.99,North,-999,-999.0,-999.0,13,-99.99,,,-99.99,,2013-03-24 03:48:00,
2013-03-23 20:54:00,61.2,10.8,30.01,North,-999,-999.0,-999.0,13,-99.99,,,-99.99,,2013-03-24 03:54:00,
2013-03-23 21:06:00,59.3,10.9,30.00,North,-999,-999.0,-999.0,14,-99.99,,,-99.99,,2013-03-24 04:06:00,
2013-03-23 21:12:00,58.5,10.8,30.01,North,-999,-999.0,-999.0,14,-99.99,,,-99.99,,2013-03-24 04:12:00,
2013-03-23 21:18:00,56.8,11.5,30.00,North,-999,-999.0,-999.0,16,-99.99,,,-99.99,,2013-03-24 04:18:00,
2013-03-23 21:24:00,55.1,12.1,30.02,North,-999,-999.0,-999.0,17,-99.99,,,-99.99,,2013-03-24 04:24:00,
2013-03-23 21:30:00,54.8,12.2,30.01,North,-999,-999.0,-999.0,18,-99.99,,,-99.99,,2013-03-24 04:30:00,
2013-03-23 21:36:00,54.2,12.0,30.02,North,-999,-999.0,-999.0,18,-99.99,,,-99.99,,2013-03-24 04:36:00,
2013-03-23 21:42:00,54.0,12.7,30.00,North,-999,-999.0,-999.0,19,-99.99,,,-99.99,,2013-03-24 04:42:00,
2013-03-23 21:48:00,53.1,13.0,30.00,North,-999,-999.0,-999.0,19,-99.99,,,-99.99,,2013-03-24 04:48:00,
2013-03-23 21:54:00,53.9,13.6,30.01,North,-999,-999.0,-999.0,19,-99.99,,,-99.99,,2013-03-24 04:54:00,
2013-03-23 22:00:00,54.0,13.4,30.01,North,-999,-999.0,-999.0,19,-99.99,,,-99.99,,2013-03-24 05:00:00,
2013-03-23 22:06:00,54.1,12.0,30.02,North,-999,-999.0,-999.0,18,-99.99,,,-99.99,,2013-03-24 05:06:00,
2013-03-23 22:12:00,53.2,12.2,30.01,North,-999,-999.0,-999.0,19,-99.99,,,-99.99,,2013-03-24 05:12:00,
2013-03-23 22:18:00,51.2,12.5,30.02,North,-999,-999.0,-999.0,20,-99.99,,,-99.99,,2013-03-24 05:18:00,
2013-03-23 22:24:00,50.4,12.5,30.02,North,-999,-999.0,-999.0,21,-99.99,,,-99.99,,2013-03-24 05:24:00,
2013-03-23 22:30:00,49.9,12.5,30.03,North,-999,-999.0,-999.0,21,-99.99,,,-99.99,,2013-03-24 05:30:00,
2013-03-23 22:36:00,49.8,12.5,30.01,North,-999,-999.0,-999.0,22,-99.99,,,-99.99,,2013-03-24 05:36:00,
2013-03-23 22:42:00,50.6,13.0,30.04,North,-999,-999.0,-999.0,21,-99.99,,,-99.99,,2013-03-24 05:42:00,
2013-03-23 22:48:00,50.6,13.1,30.02,North,-999,-999.0,-999.0,22,-99.99,,,-99.99,,2013-03-24 05:48:00,
2013-03-23 22:54:00,49.5,13.1,30.02,North,-999,-999.0,-999.0,22,-99.99,,,-99.99,,2013-03-24 05:54:00,
2013-03-23 23:00:00,49.8,13.5,30.02,North,-999,-999.0,-999.0,22,-99.99,,,-99.99,,2013-03-24 06:00:00,
2013-03-23 23:06:00,50.8,13.7,30.02,North,-999,-999.0,-999.0,22,-99.99,,,-99.99,,2013-03-24 06:06:00,
2013-03-23 23:12:00,49.5,13.7,30.02,North,-999,-999.0,-999.0,23,-99.99,,,-99.99,,2013-03-24 06:12:00,
2013-03-23 23:18:00,48.9,13.9,30.03,North,-999,-999.0,-999.0,24,-99.99,,,-99.99,,2013-03-24 06:18:00,
2013-03-23 23:24:00,48.5,14.0,30.02,North,-999,-999.0,-999.0,24,-99.99,,,-99.99,,2013-03-24 06:24:00,
2013-03-23 23:30:00,49.4,14.0,30.01,North,-999,-999.0,-999.0,23,-99.99,,,-99.99,,2013-03-24 06:30:00,
2013-03-23 23:36:00,49.1,14.0,30.02,North,-999,-999.0,-999.0,24,-99.99,,,-99.99,,2013-03-24 06:36:00,
2013-03-23 23:42:00,48.8,14.0,30.02,North,-999,-999.0,-999.0,24,-99.99,,,-99.99,,2013-03-24 06:42:00,
2013-03-23 23:48:00,48.9,14.0,30.02,North,-999,-999.0,-999.0,24,-99.99,,,-99.99,,2013-03-24 06:48:00,
2013-03-23 23:54:00,48.8,13.9,30.02,North,-999,-999.0,-999.0,24,-99.99,,,-99.99,,2013-03-24 06:54:00,